Regional Weather Roundup
Issued by NWS Upton, NY

Current Version | Previous Version | Graphics & Text | Print | Product List | Glossary Off
Versions: 1 2 3 4 5 6 7 8 9 10 11 12 13 14 15 16 17 18 19 20 21 22 23 24 25 26 27 28 29 30 31 32 33 34 35 36 37 38 39 40 41 42 43 44 45 46 47 48 49 50

000
ASUS41 KOKX 052204
RWROKX

REGIONAL WEATHER ROUNDUP
NATIONAL WEATHER SERVICE NEW YORK NY
500 PM EST FRI FEB 05 2016

NOTE: "FAIR" INDICATES FEW OR NO CLOUDS BELOW 12,000 FEET WITH NO
SIGNIFICANT WEATHER AND/OR OBSTRUCTIONS TO VISIBILITY.

NYZ071-072-176-178-NJZ106-104-052300-
NEW YORK CITY METRO AREA


CITY           SKY/WX    TMP DP  RH WIND       PRES   REMARKS
CENTRAL PARK   CLEAR     38  16  40 VRB5      30.19R WCI  34
LAGUARDIA APRT PTCLDY    40  18  41 NW18G29   30.17R WCI  31
KENNEDY INTL   PTCLDY    39  16  39 NW22G29   30.18R WCI  29
NEWARK/LIBERTY PTCLDY    38  19  46 NW15G21   30.20R WCI  29
BRNX BOT. GARD   N/A     37  18  44 NW9       30.17R WCI  31
TETERBORO      CLEAR     38  16  40 NW12G29   30.17R WCI  30
$$

NYZ177-179-078>081-052300-
LONG ISLAND NEW YORK

CITY           SKY/WX    TMP DP  RH WIND       PRES   REMARKS
FARMINGDALE    CLEAR     38  21  50 NW8G18    30.15R WCI  32
ISLIP          PTCLDY    35  25  66 W8        30.12R WCI  29
SHIRLEY        CLEAR     33  23  66 NW6       30.13R WCI  28
RIVERHEAD        N/A     36  19  51 N8        30.13R WCI  29
WESTHAMPTON    CLEAR     35  23  61 NW16G25   30.13R WCI  25
EAST HAMPTON   MOCLDY    33  28  82 NW7       30.08R WCI  27
MONTAUK POINT    N/A     34  27  75 NW13G20   30.10R WCI  25
$$

NYZ052-065-067-052300-
HUDSON VALLEY

CITY           SKY/WX    TMP DP  RH WIND       PRES   REMARKS
WHITE PLAINS   PTCLDY    36  15  42 NW18G30   30.13R WCI  26
NEWBURGH       CLEAR     37  12  35 NW17G29   30.16R WCI  28
MONTGOMERY     CLEAR     37  12  35 NW13      30.16R WCI  29
POUGHKEEPSIE   CLEAR     39   9  29 NW10      30.15R WCI  32
ALBANY         PTCLDY    37   7  28 NW22G31   30.15R WCI  26
$$

NJZ001-105-106-008-010-013-015-019>022-104-052300-
NEW JERSEY

CITY           SKY/WX    TMP DP  RH WIND       PRES   REMARKS
NEWARK/LIBERTY PTCLDY    38  19  46 NW15G21   30.20R WCI  29
TETERBORO      CLEAR     38  16  40 NW12G29   30.17R WCI  30
CALDWELL       PTCLDY    37  15  40 NW10G25   30.19R WCI  30
MORRISTOWN     PTCLDY    37  18  44 NW9G26    30.20R WCI  31
SOMERVILLE     PTCLDY    38  16  40 NW17G26   30.20R WCI  28
SUSSEX         CLEAR     36  14  40 W13G24    30.19R WCI  27
ANDOVER          N/A     34  13  41 NW10G21   30.20R WCI  26
TRENTON        CLEAR     39  18  42 N13G22    30.21R WCI  31
MILLVILLE      CLEAR     39  23  52 W16G24    30.25R WCI  30
ATLANTIC CITY  PTCLDY    38  27  64 W9        30.22R WCI  31
WRIGHTSTOWN    CLEAR     38  21  50 NW16G24   30.19R WCI  29
TOMS RIVER     CLEAR     36  25  64 NW8       30.21R WCI  29
BELMAR         PTCLDY    37  18  44 NW16      30.19R WCI  28
$$

PAZ047>061-062-071-052300-
EASTERN PENNSYLVANIA

CITY           SKY/WX    TMP DP  RH WIND       PRES   REMARKS
PHILADELPHIA   PTCLDY    42  15  33 NW21G29   30.25R
ALLENTOWN      PTCLDY    38  14  37 NW16G25   30.23R WCI  29
SCRANTON       PTCLDY    33  15  47 NW12      30.24R WCI  24
$$

CTZ002-004>006-009-010-012-RIZ004-006-007-MAZ004-011-015-052300-
SOUTHERN NEW ENGLAND
 IN CT

CITY           SKY/WX    TMP DP  RH WIND       PRES   REMARKS
BRADLEY INTL   PTCLDY    34  19  54 NW7       30.08R WCI  28
HARTFORD       CLEAR     36  20  52 NW12      30.11R WCI  28
DANBURY        CLEAR     36  11  35 NW7G17    30.13R WCI  30
WTRBRY/OXFORD  CLEAR     34  10  37 N17G25    30.10R WCI  23
BRIDGEPORT     CLEAR     37  18  46 NW8       30.13R WCI  31
MERIDEN        CLEAR     35  16  45 NW10G21   30.11R WCI  27
NEW HAVEN      PTCLDY    36  16  44 NW10G24   30.12R WCI  28
CHESTER        FAIR      34  23  64 NW13G18   30.08R WCI  25
GROTON         CLOUDY    33  27  78 NW10      30.08R WCI  25
WILLIMANTIC    CLOUDY    33  22  63 NW8       30.08R WCI  26

 IN RI

CITY           SKY/WX    TMP DP  RH WIND       PRES   REMARKS
PROVIDENCE     CLOUDY    30  26  85 NW7       30.05R WCI  23
BLOCK ISLAND   CLOUDY    32  28  86 NW10G21   30.06R WCI  24
WESTERLY       CLOUDY    32  26  78 VRB5      30.08R WCI  27

 IN MA

CITY           SKY/WX    TMP DP  RH WIND       PRES   REMARKS
BOSTON         LGT SNOW  31  28  89 NW10G22   30.02R VSB 3/4 WCI  22
WORCESTER      MIX PCPN  28  15  58 NW17G24   30.00R WCI  16
WESTFIELD      CLEAR     34  16  47 N12       30.08R WCI  25
PROVINCETOWN   LGT SNOW  32  32 100 N28G35    29.96R VSB 3/4 WCI  18
NANTUCKET      LGT SNOW  34  33  96 NW22G32   29.92R VSB 1   WCI  22
$$

ANZ330-335-338-340-345-350-353-355-052300-
COASTAL MARINE OBSERVATIONS


STATION/POSITION TIME  SKY/WX   TEMP    WIND        PRES    VSBY  WAVE
                                AIR SEA DIR/SP/G                  HT/PER
                 (UTC)          (F)     (DEG/KT/KT) (MB)    (MI)  (FT/S)
NY HARB ENTRANCE 2150            41 44  310/ 25/ 29 1020.3          3/ 4
4S FIRE IS       NOT AVBL
20S FIRE ISLAND  2050            39 46  300/ 19/ 25 1019.4          6/ 5
GREAT SOUTH BAY  NOT AVBL
23SW MTP         2150            37 47  310/ 17/ 21 1018.4          7/ 5
HUDSON CANYON    2050            40 51              1018.8         14/ 8
KINGS POINT      2100            39 40  360/ 19/ 24 1020.2
EXECUTION ROCKS  NOT AVBL
CENTRAL LI SOUND NOT AVBL
EASTERN LI SOUND 2100            33 42  310/ 12/ 17   N/A
ROBBINS REEF     2100            39     310/ 21/ 25 1020.3
$$


>>>>>>>>>>>>>>>>>>>>>>>>>>>> KEY <<<<<<<<<<<<<<<<<<<<<<<<<<<
>                                                          <
>     SKY/WX - SKY CONDITION/PRESENT WEATHER               <
>     TMP    - TEMPERATURE IN FAHRENHEIT                   <
>     DP     - DEWPOINT IN FAHRENHEIT                      <
>     RH     - RELATIVE HUMIDITY IN PERCENT                <
>     WIND   - DIRECTION AND SPEED IN MPH                  <
>     PRES   - MEAN SEA LEVEL PRESSURE IN INCHES OF HG     <
>     WCI    - WIND CHILL INDEX                            <
>     VSB    - VISIBILITY IN MILES                         <
>     HX     - HEAT INDEX                                  <
>     TC     - TEMPERATURE IN CELSIUS                      <
>     VRB    - VARIABLE WIND DIRECTION                     <
>                                                          <
>>>>>>>>>>>>>>>>>>>>>>>>>>>> KEY <<<<<<<<<<<<<<<<<<<<<<<<<<<





USA.gov is the U.S. government's official web portal to all federal, state and local government web resources and services.